Weather History for VAAH - October, 2012

Change the Weather History Date:

Saturday, October 27, 2012

  Actual Average Record
Temperature  
Mean Temperature 79 °F -  
Max Temperature 93 °F 88 °F 98 °F (2001)
Min Temperature 65 °F 62 °F 62 °F (2003)
Cooling Degree Days 14    
Growing Degree Days 29 (Base 50)    
Moisture  
Dew Point 53 °F    
Average Humidity 43    
Maximum Humidity 68    
Minimum Humidity 13    
Precipitation  
Precipitation 0.00 in 0.02 in - ()
Sea Level Pressure  
Sea Level Pressure 29.87 in    
Wind  
Wind Speed 4 mph ()    
Max Wind Speed 12 mph    
Max Gust Speed -    
Visibility 2.6 miles    
Events      
Averages and records for this station are not official NWS values.
T = Trace of Precipitation, MM = Missing Value Source: Averaged Metar Reports

Daily Weather History Graph

Daily Weather History Graph

Search for Another Location

Airport or City:

Trip Planner

Search our weather history database for the weather conditions in past years. The results will help you decide how hot, cold, wet, or windy it might be!

Date:

Astronomy

Oct. 27, 2012 Rise Set
Actual Time 6:41 AM IST 6:04 PM IST
Civil Twilight 6:18 AM IST 6:27 PM IST
Nautical Twilight 5:52 AM IST 6:53 PM IST
Astronomical Twilight 5:26 AM IST 7:20 PM IST
Moon 4:26 PM IST (10/27) 4:23 AM IST (10/27)
Length of Visible Light 12h 08m
Length of Day
11h 22m
Waxing Gibbous, 94% of the Moon is Illuminated
Oct 27
Waxing Gibbous
Oct 30
Full
Nov 7
Last Quarter
Nov 14
New
Nov 20
First Quarter

Hourly Weather History & Observations

Time (IST) Temp. Heat Index Dew Point Humidity Pressure Visibility Wind Dir Wind Speed Gust Speed Precip Events Conditions
12:10 AM 69.8 °F - 57.2 °F 64% 29.86 in 2.5 mi Calm Calm - N/A   Smoke
12:40 AM 68.0 °F - 57.2 °F 68% 29.86 in 2.5 mi Calm Calm - N/A   Haze
1:10 AM 69.8 °F - 53.6 °F 56% 29.86 in 2.5 mi Calm Calm - N/A   Haze
1:40 AM 68.0 °F - 55.4 °F 64% 29.86 in 2.5 mi Calm Calm - N/A   Haze
2:10 AM 66.2 °F - 55.4 °F 68% 29.86 in 2.5 mi Calm Calm - N/A   Haze
2:30 AM 71 °F - 54 °F 46% 29.86 in 2 mi Calm Calm - -  
2:40 AM 68.0 °F - 51.8 °F 56% 29.83 in 2.5 mi NE 4.6 mph - N/A   Haze
3:10 AM 68.0 °F - 51.8 °F 56% 29.83 in 2.5 mi NE 4.6 mph - N/A   Haze
3:40 AM 66.2 °F - 51.8 °F 60% 29.83 in 2.5 mi NE 4.6 mph - N/A   Haze
4:10 AM 66.2 °F - 51.8 °F 60% 29.83 in 2.5 mi NE 4.6 mph - N/A   Haze
4:40 AM 66.2 °F - 51.8 °F 60% 29.86 in 2.5 mi NE 4.6 mph - N/A   Haze
5:10 AM 66.2 °F - 51.8 °F 60% 29.86 in 2.5 mi NE 4.6 mph - N/A   Haze
5:30 AM 68 °F - 53 °F 48% 29.88 in 2 mi NE 3.5 mph - -  
5:40 AM 64.4 °F - 51.8 °F 64% 29.86 in 2.5 mi NE 4.6 mph - N/A   Haze
6:10 AM 64.4 °F - 51.8 °F 64% 29.89 in 2.5 mi NE 4.6 mph - N/A   Haze
6:40 AM 64.4 °F - 51.8 °F 64% 29.89 in 2.5 mi NE 4.6 mph - N/A   Haze
7:10 AM 66.2 °F - 50.0 °F 56% 29.89 in 2.2 mi ENE 4.6 mph - N/A   Haze
8:10 AM 71.6 °F - 50.0 °F 46% 29.92 in 1.9 mi NE 5.8 mph - N/A   Smoke
8:30 AM 74 °F - 49 °F 31% 29.93 in 2 mi North 4.6 mph - -  
8:40 AM 75.2 °F - 50.0 °F 41% 29.92 in 1.9 mi ENE 5.8 mph - N/A   Smoke
9:10 AM 78.8 °F - 50.0 °F 36% 29.92 in 1.9 mi ENE 8.1 mph - N/A   Smoke
10:10 AM 84.2 °F - 50.0 °F 30% 29.92 in 2.5 mi ENE 8.1 mph - N/A   Smoke
10:40 AM 84.2 °F - 50.0 °F 30% 29.92 in 2.5 mi East 6.9 mph - N/A   Smoke
11:30 AM 88 °F - 51 °F 18% 29.93 in 2 mi East 6.9 mph - -  
12:10 PM 91.4 °F 89.1 °F 53.6 °F 28% 29.89 in 3.7 mi East 6.9 mph - N/A   Unknown
12:40 PM 93.2 °F 90.8 °F 53.6 °F 26% 29.89 in 3.7 mi NE 5.8 mph - N/A   Unknown
1:10 PM 93.2 °F - 51.8 °F 24% 29.83 in 3.7 mi ENE 8.1 mph - N/A   Unknown
1:40 PM 95.0 °F 92.7 °F 53.6 °F 25% 29.83 in 3.7 mi ENE 6.9 mph - N/A   Unknown
2:10 PM 95.0 °F - 51.8 °F 23% 29.83 in 3.7 mi ENE 10.4 mph - N/A   Unknown
2:30 PM 92 °F - 48 °F 13% 29.85 in 2 mi NE 5.8 mph - -  
2:40 PM 95.0 °F - 50.0 °F 22% 29.80 in 3.7 mi ENE 10.4 mph - N/A   Unknown
3:10 PM 95.0 °F - 51.8 °F 23% 29.80 in 3.7 mi ENE 10.4 mph - N/A   Unknown
3:40 PM 95.0 °F - 51.8 °F 23% 29.80 in 3.7 mi NE 11.5 mph - N/A   Unknown
4:10 PM 93.2 °F 90.8 °F 53.6 °F 26% 29.80 in 3.7 mi ENE 11.5 mph - N/A   Unknown
4:40 PM 93.2 °F - 51.8 °F 24% 29.80 in 3.7 mi NE 11.5 mph - N/A   Unknown
5:10 PM 91.4 °F 89.1 °F 53.6 °F 28% 29.83 in 3.7 mi ENE 9.2 mph - N/A   Unknown
5:30 PM 89 °F - 54 °F 21% 29.85 in 2 mi NE 3.5 mph - -  
6:10 PM 86.0 °F 84.9 °F 57.2 °F 37% 29.83 in 2.5 mi Calm Calm - N/A   Smoke
6:40 PM 82.4 °F 81.7 °F 55.4 °F 39% 29.83 in 2.5 mi Calm Calm - N/A   Smoke
7:10 PM 80.6 °F 80.5 °F 55.4 °F 42% 29.86 in 2.5 mi NE 3.5 mph - N/A   Smoke
7:40 PM 78.8 °F - 55.4 °F 44% 29.86 in 2.5 mi NE 5.8 mph - N/A   Smoke
8:10 PM 77.0 °F - 55.4 °F 47% 29.86 in 2.5 mi NE 4.6 mph - N/A   Smoke
8:30 PM 75 °F - 59 °F 48% 29.90 in 2 mi North 2.3 mph - -   Haze
8:40 PM 75.2 °F - 55.4 °F 50% 29.89 in 2.5 mi Variable 2.3 mph - N/A   Smoke
9:40 PM 75.2 °F - 55.4 °F 50% 29.89 in 2.5 mi NE 3.5 mph - N/A   Smoke
10:10 PM 73.4 °F - 55.4 °F 53% 29.89 in 2.5 mi NNE 3.5 mph - N/A   Smoke
10:40 PM 73.4 °F - 53.6 °F 50% 29.89 in 2.5 mi NNE 3.5 mph - N/A   Smoke
11:10 PM 71.6 °F - 53.6 °F 53% 29.89 in 2.5 mi NE 3.5 mph - N/A   Smoke
11:30 PM 71 °F - 57 °F 51% 29.91 in 2 mi Calm Calm - -   Haze
11:40 PM 71.6 °F - 53.6 °F 53% 29.89 in 2.5 mi NNE 3.5 mph - N/A   Smoke